CW3999 Weather Reports


Display with metric or nautical units.
time (UTC)temp
F
wind
direction
speed
MPH
gust
MPH
rain 1hr
in
rain 24hr
in
rain mn
in
humidity
%
barometer
mb
20260506091203 58 235 0.0 0.0 0.00 0.00 0.00 100 1016.0
20260506090203 58 235 0.0 0.0 0.00 0.00 0.00 100 1016.0
20260506084702 58 235 0.0 0.0 0.00 0.00 0.00 100 1015.9
20260506084202 58 235 0.0 0.0 0.00 0.00 0.00 100 1015.9
20260506083704 58 235 0.0 0.0 0.00 0.00 0.00 100 1015.9
20260506083204 58 235 0.0 0.0 0.00 0.00 0.00 100 1015.9
20260506082703 58 235 0.0 0.0 0.00 0.00 0.00 100 1015.9
20260506082202 58 235 0.0 0.0 0.00 0.00 0.00 100 1015.9
20260506081647 58 235 0.0 0.0 0.00 0.00 0.00 100 1015.9
20260506080647 58 235 0.0 0.0 0.00 0.00 0.00 100 1015.8
20260506080143 58 235 0.0 0.0 0.00 0.00 0.00 100 1015.8
20260506073130 58 235 0.0 0.0 0.00 0.00 0.00 100 1015.6
20260506072630 58 235 0.0 0.0 0.00 0.00 0.00 100 1015.5
20260506071630 58 235 0.0 0.0 0.00 0.00 0.00 100 1015.4
20260506071130 58 235 0.0 0.0 0.00 0.00 0.00 100 1015.4
20260506070629 58 235 0.0 0.0 0.00 0.00 0.00 100 1015.4
20260506070130 58 235 0.0 0.0 0.00 0.00 0.00 100 1015.4
20260506062103 58 235 0.0 0.0 0.00 0.00 0.00 100 1015.3
20260506061101 58 235 0.0 0.0 0.00 0.00 0.00 100 1015.2
20260506060603 58 235 0.0 0.0 0.00 0.00 0.00 100 1015.2
20260506051101 59 235 0.0 0.0 0.00 0.00 0.00 100 1015.0
20260506050103 59 235 0.0 0.0 0.00 0.00 0.00 100 1014.9
20260506045102 59 235 0.0 0.0 0.00 0.00 0.00 100 1014.9
20260506044602 60 235 0.0 0.0 0.00 0.00 0.00 3 1014.8
20260506043601 60 235 0.0 0.0 0.00 0.00 0.00 12 1014.7
20260506043101 60 235 0.0 0.0 0.00 0.00 0.00 17 1014.7
20260506042100 60 235 0.0 0.0 0.00 0.00 0.00 26 1014.5
20260506041603 61 235 0.0 0.0 0.00 0.00 0.00 28 1014.4
20260506041102 61 235 0.0 0.0 0.00 0.00 0.00 31 1014.3
20260506040603 61 235 0.0 0.0 0.00 0.00 0.00 33 1014.3
20260506040101 61 235 0.0 0.0 0.00 0.00 0.00 33 1014.3
20260506035602 62 235 0.0 0.0 0.00 0.00 0.00 32 1014.2
20260506035102 62 235 0.0 0.0 0.00 0.00 0.00 31 1014.2
20260506034101 62 235 0.0 0.0 0.00 0.00 0.00 28 1014.0
20260506033603 62 235 0.0 0.0 0.00 0.00 0.00 29 1013.9
20260506033104 62 235 0.0 0.0 0.00 0.00 0.00 30 1013.9
20260506032603 63 235 0.0 0.0 0.00 0.00 0.00 33 1013.8
20260506032102 63 235 0.0 0.0 0.00 0.00 0.00 35 1013.8
20260506031602 63 235 0.0 0.0 0.00 0.00 0.00 36 1013.8
20260506031102 64 235 0.0 0.0 0.00 0.00 0.00 37 1013.8
20260506030100 64 235 0.0 0.0 0.00 0.00 0.00 41 1013.7
20260506025103 64 235 0.0 0.0 0.00 0.00 0.00 41 1013.6
20260506024604 64 235 0.0 0.0 0.00 0.00 0.00 40 1013.5
20260506024103 64 235 0.0 0.0 0.00 0.00 0.00 41 1013.5
20260506023603 64 235 0.0 0.0 0.00 0.00 0.00 42 1013.5
20260506022604 64 235 0.0 0.0 0.00 0.00 0.00 41 1013.4
20260506022102 64 235 0.0 0.0 0.00 0.00 0.00 41 1013.4
20260506021604 64 235 0.0 0.0 0.00 0.00 0.00 42 1013.4
20260506020601 64 235 0.0 0.0 0.00 0.00 0.00 43 1013.5
20260506020101 64 235 0.0 0.0 0.00 0.00 0.00 43 1013.5
20260506015602 64 236 0.0 0.0 0.00 0.00 0.00 45 1013.4
20260506014604 65 236 0.0 0.0 0.00 0.00 0.00 44 1013.4
20260506014104 65 236 0.0 0.0 0.00 0.00 0.00 45 1013.3
20260506013602 65 236 0.0 0.0 0.00 0.00 0.00 46 1013.4
20260506012604 65 236 0.0 0.0 0.00 0.00 0.00 47 1013.5
20260506011603 65 236 0.0 0.0 0.00 0.00 0.00 47 1013.5
20260506011103 65 236 0.0 0.0 0.00 0.00 0.00 48 1013.5
20260506010603 66 236 0.0 0.0 0.00 0.00 0.00 50 1013.5
20260506010104 66 236 0.0 0.0 0.00 0.00 0.00 50 1013.5
20260506005103 67 236 0.0 0.0 0.00 0.00 0.00 50 1013.5
20260506004602 67 236 0.0 0.0 0.00 0.00 0.00 47 1013.4
20260506003601 66 236 0.0 0.0 0.00 0.00 0.00 45 1013.5
20260506003101 65 236 0.0 0.0 0.00 0.00 0.00 46 1013.5
20260506002602 65 236 0.0 0.0 0.00 0.00 0.00 44 1013.5
20260506002105 65 236 0.0 0.0 0.00 0.00 0.00 45 1013.6
20260506001604 65 236 0.0 0.0 0.00 0.00 0.00 47 1013.7
20260506001106 65 236 0.0 0.0 0.00 0.00 0.00 46 1013.7
20260506000603 65 236 0.0 0.0 0.00 0.00 0.00 43 1013.7
20260505235601 65 236 0.0 0.0 0.00 0.00 0.00 44 1013.8
20260505235102 65 236 0.0 0.0 0.00 0.00 0.00 44 1013.8
20260505234101 65 236 0.0 0.0 0.00 0.00 0.00 47 1014.0
20260505233059 65 236 0.0 0.0 0.00 0.00 0.00 46 1014.1
20260505232559 65 236 0.0 0.0 0.00 0.00 0.00 47 1014.2
20260505232059 66 236 0.0 0.0 0.00 0.00 0.00 50 1014.2
20260505231543 67 236 0.0 0.0 0.00 0.00 0.00 48 1014.1
20260505230537 66 236 0.0 0.0 0.00 0.00 0.00 47 1014.2
20260505230040 66 236 0.0 0.0 0.00 0.00 0.00 43 1014.2
20260505225531 65 252 0.0 0.0 0.00 0.00 0.00 48 1014.2
20260505225031 65 252 0.0 0.0 0.00 0.00 0.00 49 1014.4
20260505224530 65 252 0.0 0.0 0.00 0.00 0.00 49 1014.4
20260505224027 66 252 0.0 0.0 0.00 0.00 0.00 50 1014.4
20260505222519 66 252 0.0 0.0 0.00 0.00 0.00 50 1014.5
20260505222016 66 253 0.0 0.0 0.00 0.00 0.00 48 1014.5
20260505221502 66 253 0.0 0.0 0.00 0.00 0.00 47 1014.6
20260505221004 66 253 0.0 0.0 0.00 0.00 0.00 46 1014.6
20260505220504 66 253 0.0 0.0 0.00 0.00 0.00 45 1014.6
20260505220004 65 253 0.0 0.0 0.00 0.00 0.00 44 1014.6
20260505215502 65 253 0.0 0.0 0.00 0.00 0.00 45 1014.5
20260505215003 64 253 0.0 0.0 0.00 0.00 0.00 39 1014.6
20260505214501 64 253 0.0 0.0 0.00 0.00 0.00 36 1014.6
20260505214002 64 253 0.0 0.0 0.00 0.00 0.00 36 1014.7
20260505213502 63 253 0.0 0.0 0.00 0.00 0.00 35 1014.7
20260505213000 63 253 0.0 0.0 0.00 0.00 0.00 30 1014.8
20260505212002 62 254 0.0 0.0 0.00 0.00 0.00 24 1014.8
20260505211504 62 254 0.0 0.0 0.00 0.00 0.00 32 1014.8
20260505211002 62 254 0.0 0.0 0.00 0.00 0.00 26 1014.8
20260505210001 62 254 0.0 0.0 0.00 0.00 0.00 26 1014.8
20260505205502 62 254 0.0 0.0 0.00 0.00 0.00 22 1014.9
20260505205003 61 254 0.0 0.0 0.00 0.00 0.00 24 1014.9
20260505204502 62 254 0.0 0.0 0.00 0.00 0.00 21 1015.0
20260505204002 62 254 0.0 0.0 0.00 0.00 0.00 23 1015.0
20260505203503 62 254 0.0 0.0 0.00 0.00 0.00 26 1015.0
20260505203004 62 254 0.0 0.0 0.00 0.00 0.00 22 1015.1
20260505202504 62 254 0.0 0.0 0.00 0.00 0.00 8 1015.1
20260505202004 62 254 0.0 0.0 0.00 0.00 0.00 100 1015.1
20260505201504 61 254 0.0 0.0 0.00 0.00 0.00 100 1015.1
20260505201002 60 254 0.0 0.0 0.00 0.00 0.00 100 1015.1
20260505200500 60 254 0.0 0.0 0.00 0.00 0.00 100 1015.1
20260505200003 60 254 0.0 0.0 0.00 0.00 0.00 100 1015.1
20260505195502 60 254 0.0 0.0 0.00 0.00 0.00 5 1015.2
20260505195002 60 254 0.0 0.0 0.00 0.00 0.00 7 1015.2
20260505194502 60 254 0.0 0.0 0.00 0.00 0.00 5 1015.2
20260505194002 60 254 0.0 0.0 0.00 0.00 0.00 2 1015.2
20260505193503 60 254 0.0 0.0 0.00 0.00 0.00 100 1015.1
20260505193004 60 254 0.0 0.0 0.00 0.00 0.00 100 1015.2
20260505192503 60 254 0.0 0.0 0.00 0.00 0.00 100 1015.2
20260505192004 59 254 0.0 0.0 0.00 0.00 0.00 100 1015.2
20260505191502 59 254 0.0 0.0 0.00 0.00 0.00 100 1015.2
20260505191003 59 254 0.0 0.0 0.00 0.00 0.00 100 1015.2
20260505190503 59 254 0.0 0.0 0.00 0.00 0.00 100 1015.2
20260505190004 59 254 0.0 0.0 0.00 0.00 0.00 100 1015.1
20260505185502 59 254 0.0 0.0 0.00 0.00 0.00 100 1015.1
20260505185003 60 254 0.0 0.0 0.00 0.00 0.00 1 1015.2
20260505184502 60 254 0.0 0.0 0.00 0.00 0.00 100 1015.1
20260505184001 60 254 0.0 0.0 0.00 0.00 0.00 7 1015.2
20260505183502 60 254 0.0 0.0 0.00 0.00 0.00 9 1015.1
20260505183005 60 254 0.0 0.0 0.00 0.00 0.00 11 1015.1
20260505182503 61 254 0.0 0.0 0.00 0.00 0.00 15 1015.1
20260505182004 61 254 0.0 0.0 0.00 0.00 0.00 24 1015.1
20260505181504 62 254 0.0 0.0 0.00 0.00 0.00 26 1015.0
20260505181002 62 253 0.0 0.0 0.00 0.00 0.00 19 1015.0
20260505180003 61 253 0.0 0.0 0.00 0.00 0.00 24 1014.9
20260505175506 61 253 0.0 0.0 0.00 0.00 0.00 9 1014.9
20260505175003 61 253 0.0 0.0 0.00 0.00 0.00 100 1015.0
20260505174503 60 253 0.0 0.0 0.00 0.00 0.00 100 1015.0
20260505174002 59 253 0.0 0.0 0.00 0.00 0.00 100 1015.0
20260505173501 59 253 0.0 0.0 0.00 0.00 0.00 100 1015.0
20260505172503 58 253 0.0 0.0 0.00 0.00 0.00 100 1015.0
20260505172002 58 253 0.0 0.0 0.00 0.00 0.00 100 1015.0
20260505171504 58 253 0.0 0.0 0.00 0.00 0.00 100 1014.9
20260505170001 57 253 0.0 0.0 0.00 0.00 0.00 100 1014.8
20260505165502 57 253 0.0 0.0 0.00 0.00 0.00 100 1014.7
20260505165000 56 254 0.0 0.0 0.00 0.00 0.00 100 1014.6
20260505164508 56 253 0.0 0.0 0.00 0.00 0.00 100 1014.7
20260505164004 56 253 0.0 0.0 0.00 0.00 0.00 100 1014.7
20260505163503 56 253 0.0 0.0 0.00 0.00 0.00 100 1014.7
20260505163004 55 253 0.0 0.0 0.00 0.00 0.00 100 1014.7
20260505162004 55 253 0.0 0.0 0.00 0.00 0.00 100 1014.6
20260505161503 55 254 0.0 0.0 0.00 0.00 0.00 100 1014.6
20260505161002 55 254 0.0 0.0 0.00 0.00 0.00 100 1014.7
20260505160502 55 253 0.0 0.0 0.00 0.00 0.00 100 1014.6
20260505152941 53 254 0.0 0.0 0.00 0.00 0.00 100 1014.6
20260505152430 53 253 0.0 0.0 0.00 0.00 0.00 100 1014.5
20260505151931 53 253 0.0 0.0 0.00 0.00 0.00 100 1014.5
20260505151429 53 254 0.0 0.0 0.00 0.00 0.00 100 1014.5
20260505150930 53 253 0.0 0.0 0.00 0.00 0.00 100 1014.5
20260505150430 53 254 0.0 0.0 0.00 0.00 0.00 100 1014.4
20260505140402 51 254 0.0 0.0 0.00 0.00 0.00 100 1013.9
20260505124903 51 234 0.0 0.0 0.00 0.00 0.00 100 1013.5
20260505124403 51 234 0.0 0.0 0.00 0.00 0.00 100 1013.5
20260505123902 51 234 0.0 0.0 0.00 0.00 0.00 100 1013.5
20260505123402 51 234 0.0 0.0 0.00 0.00 0.00 100 1013.4
20260505122902 51 234 0.0 0.0 0.00 0.00 0.00 100 1013.4
20260505122404 51 234 0.0 0.0 0.00 0.00 0.00 100 1013.4
20260505121404 51 234 0.0 0.0 0.00 0.00 0.00 100 1013.4
20260505120904 51 234 0.0 0.0 0.00 0.00 0.00 100 1013.4
20260505120332 51 234 0.0 0.0 0.00 0.00 0.00 100 1013.4
20260505115831 51 234 0.0 0.0 0.00 0.00 0.00 100 1013.3
20260505114830 51 234 0.0 0.0 0.00 0.00 0.00 100 1013.3
20260505114330 51 234 0.0 0.0 0.00 0.00 0.00 100 1013.3
20260505113831 51 234 0.0 0.0 0.00 0.00 0.00 100 1013.3
20260505112314 51 234 0.0 0.0 0.00 0.00 0.00 100 1013.3
20260505111803 51 234 0.0 0.0 0.00 0.00 0.00 100 1013.3
20260505110802 51 234 0.0 0.0 0.00 0.00 0.00 100 1013.2
20260505101804 51 234 0.0 0.0 0.00 0.00 0.00 100 1012.8
20260505101304 51 234 0.0 0.0 0.00 0.00 0.00 100 1012.8
20260505100804 51 234 0.0 0.0 0.00 0.00 0.00 100 1012.8
20260505100303 51 234 0.0 0.0 0.00 0.00 0.00 100 1012.7
20260505095804 51 234 0.0 0.0 0.00 0.00 0.00 100 1012.7
20260505094802 52 234 0.0 0.0 0.00 0.00 0.00 100 1012.7
20260505093802 52 234 0.0 0.0 0.00 0.00 0.00 100 1012.7
20260505093302 52 234 0.0 0.0 0.00 0.00 0.00 100 1012.5
20260505092305 52 234 0.0 0.0 0.00 0.00 0.00 100 1012.5
20260505091803 52 234 0.0 0.0 0.00 0.00 0.00 100 1012.5